Cloud_Cover
100 100 100 100 99 100 100 100 100 100 100 100 100 100 100 100 100 100 100 100 56 6 41 99 100 100 100 24 16 96 30 5 5 0 4 5 5 4 1 1 0 0 0 0 0
100 100 100 100 100 100 100 100 100 100 100 100 100 100 100 100 100 100 100 100 100 50 58 42 68 100 100 82 62 100 6 22 30 7 18 5 5 5 2 2 0 0 1 0 0
100 100 100 100 100 100 100 100 100 100 100 100 100 100 100 100 100 100 100 100 98 33 61 65 76 100 100 100 90 96 34 26 7 13 61 9 10 5 5 16 5 5 5 5 5
44 86 100 100 100 100 100 100 100 100 100 100 100 100 100 100 100 100 100 100 100 73 100 100 99 100 96 100 100 100 82 76 44 53 88 30 5 5 5 5 5 5 35 45 12
0 0 6 100 100 100 100 100 100 100 100 100 100 100 100 100 100 100 100 100 100 100 100 100 100 100 98 94 100 100 76 93 81 100 100 94 42 14 5 5 5 5 6 92 5
0 0 0 0 20 100 100 100 100 100 96 100 100 100 100 100 100 100 100 100 100 100 100 100 100 100 100 100 96 100 46 67 86 93 100 100 92 45 61 5 5 5 5 5 5
100 70 0 0 0 41 100 100 100 100 100 100 100 100 100 100 100 100 100 100 100 100 100 100 100 100 100 100 100 100 81 100 99 100 96 57 100 31 97 46 7 5 5 68 5
11 100 100 1 0 0 40 100 100 100 100 100 100 99 100 100 100 100 100 100 100 100 100 100 100 100 100 100 100 100 100 100 100 100 100 88 85 68 78 66 21 65 74 12 30
42 100 100 100 0 0 0 21 100 100 100 100 100 100 100 100 100 100 100 100 100 100 100 100 100 100 100 100 100 100 100 100 100 100 100 100 99 79 62 95 85 100 100 85 84
85 32 45 99 72 0 0 98 100 100 100 100 100 100 100 100 100 100 100 100 100 100 100 100 100 100 100 100 100 100 100 100 99 100 100 100 100 100 100 100 100 100 100 99 88
48 100 39 5 100 4 1 68 100 100 100 100 100 100 100 100 100 100 100 100 100 100 100 100 100 100 100 100 100 100 100 100 64 50 79 100 100 100 100 100 100 100 100 100 100
100 99 98 41 85 86 45 100 33 62 98 93 100 100 100 100 100 100 100 88 100 100 100 100 100 100 100 100 100 100 100 100 100 100 100 100 100 92 100 100 100 100 100 100 100
30 100 100 94 45 100 13 21 100 100 100 17 29 100 100 100 100 100 100 100 99 100 100 100 100 100 100 100 100 100 100 100 100 100 91 67 97 100 99 100 100 100 100 100 100
57 90 100 100 65 77 90 0 81 100 88 22 81 37 100 100 100 100 100 100 100 100 100 93 93 100 100 100 100 100 100 100 100 100 100 100 97 100 100 100 100 100 100 100 100
89 95 100 100 54 96 100 4 12 70 100 0 52 30 5 100 100 100 100 100 100 100 100 100 100 100 100 100 100 100 100 100 100 100 100 100 92 100 100 100 100 100 100 100 100
6 69 100 100 98 17 99 42 3 100 100 71 98 100 100 98 100 100 100 100 100 100 100 100 99 100 100 100 100 100 100 100 100 100 100 100 100 100 100 100 100 100 100 100 100
6 74 100 98 98 86 92 100 97 100 4 54 100 100 100 100 100 100 100 100 100 100 100 100 100 100 100 100 100 99 100 100 100 100 100 100 100 100 100 100 100 100 100 100 100
11 36 50 100 100 100 100 100 100 71 6 2 27 100 100 100 100 100 100 100 100 100 100 100 100 100 100 100 100 100 100 100 100 100 100 100 100 100 100 100 100 100 100 100 100
10 56 100 78 100 100 100 100 93 3 2 24 98 100 100 100 66 100 100 60 100 100 100 100 100 100 100 100 100 100 100 100 100 100 52 50 100 100 100 100 100 100 100 100 100
100 100 90 77 100 100 100 100 98 4 0 5 5 95 100 100 100 100 100 66 24 100 100 100 100 100 100 100 100 100 100 100 92 19 8 5 9 100 100 100 100 100 100 100 100
100 100 66 100 100 100 100 100 100 5 2 2 5 6 100 100 98 100 42 6 5 80 100 100 100 100 100 100 100 100 100 100 100 100 98 81 71 100 100 100 100 100 100 100 100
100 100 99 100 100 100 100 100 90 49 5 71 87 12 62 100 100 100 37 2 0 60 100 100 100 100 100 100 100 100 100 100 100 100 100 100 97 100 100 100 100 100 100 100 100
100 100 100 100 100 100 100 99 100 84 100 91 100 23 90 29 92 100 6 5 1 6 100 100 100 100 100 100 100 100 100 100 100 100 96 98 47 98 100 100 100 100 100 100 93
100 100 100 100 100 100 100 100 99 51 100 100 96 100 38 100 15 27 48 5 4 2 89 100 100 100 100 100 100 100 100 100 100 100 56 24 52 11 43 27 88 100 93 37 51
100 100 100 100 100 100 100 100 94 100 100 100 100 100 100 100 98 26 5 7 5 5 5 100 100 100 100 100 100 100 100 100 100 100 94 49 19 28 8 63 6 66 97 98 69
100 100 46 59 100 100 100 100 100 100 100 100 99 100 100 100 100 36 4 20 5 47 72 86 100 100 100 100 100 100 100 100 100 100 99 29 92 100 100 99 99 57 61 99 100
100 100 100 100 100 100 100 100 100 100 100 100 98 100 100 100 100 23 14 9 5 4 54 94 100 100 100 100 100 100 100 100 100 100 100 91 91 100 82 95 95 99 100 82 48